Date String (YYYY-MM-DD hh:mm:ss) UTC,Instrument flags,absolute air pressure of the measurement (hPa),sample flow rate (lpm),inlet stack bypass flow (lpm),air temperature of the measurement (°C),ambient temperature measured by the external sensor (°C),aerosol sample conditioner tube jacket temperature (°C),OPC LED temperature (°C),internal box temperature (°C),relative humidity of the measurement (%),span deviation,mass concentration of particles derived from Lorenz-Mie calculation of OPC scattering (μg/m³),mass concentration of particles derived from Lorenz-Mie calculation of OPC scattering (μg/m³),mass concentration of particles derived from Lorenz-Mie calculation of OPC scattering (μg/m³)
DateTimeUTC,F1_M11,P_M11,Q1_M11,Q2_M11,T1_M11,T2_M11,T3_M11,T4_M11,T5_M11,U1_M11,ZSPAN_M11,X2_M11,X0_M11,X1_M11
2024-02-06 11:00:00,SystemResetWarning,0825.6,5.01,000.00,019.2,018.6,000.0,027.6,020.9,17.9,0000.0,0001.85,0005.28,0001.32
2024-02-06 11:01:00,SystemResetWarning,0825.6,5.01,000.00,019.2,018.6,000.0,027.6,020.9,17.8,0000.0,0001.77,0005.07,0001.31
2024-02-06 11:02:00,SystemResetWarning,0825.6,5.01,000.00,019.2,018.6,000.0,027.6,020.9,17.8,0000.0,0001.72,0004.87,0001.28
2024-02-06 11:03:00,SystemResetWarning,0825.7,5.00,000.00,019.2,018.6,000.0,027.6,020.9,17.9,0000.0,0001.66,0004.16,0001.27
2024-02-06 11:04:00,SystemResetWarning,0825.6,4.99,000.00,019.2,018.6,000.0,027.6,020.8,17.9,0000.0,0001.61,0003.58,0001.24
2024-02-06 11:05:00,SystemResetWarning,0825.6,4.99,000.00,019.2,018.6,000.0,027.6,020.9,18.4,0000.0,0001.57,0002.41,0001.22
2024-02-06 11:06:00,SystemResetWarning,0825.6,5.00,000.00,019.2,018.6,000.0,027.6,020.9,18.6,0000.0,0001.46,0002.08,0001.19
2024-02-06 11:07:00,SystemResetWarning,0825.6,5.00,000.00,019.2,018.6,000.0,027.6,020.9,18.6,0000.0,0001.41,0001.96,0001.18
2024-02-06 11:08:00,SystemResetWarning,0825.6,5.00,000.00,019.2,018.6,000.0,027.6,020.9,18.6,0000.0,0001.37,0001.84,0001.18
2024-02-06 11:09:00,SystemResetWarning,0825.6,5.01,000.00,019.2,018.6,000.0,027.6,020.9,18.5,0000.0,0001.41,0001.87,0001.23
2024-02-06 11:10:00,SystemResetWarning,0825.7,5.01,000.00,019.2,018.6,000.0,027.6,020.8,18.6,0000.0,0001.46,0002.02,0001.28
2024-02-06 11:11:00,SystemResetWarning,0825.7,5.00,000.00,019.2,018.6,000.0,027.5,020.8,18.7,0000.0,0001.53,0002.26,0001.33
2024-02-06 11:12:00,SystemResetWarning,0825.7,4.99,000.00,019.1,018.5,000.0,027.5,020.8,18.7,0000.0,0001.61,0003.24,0001.37
2024-02-06 11:13:00,SystemResetWarning,0825.7,4.99,000.00,019.1,018.5,000.0,027.5,020.8,19.4,0000.0,0001.70,0003.74,0001.43
2024-02-06 11:14:00,SystemResetWarning,0825.7,4.99,000.00,019.1,018.5,000.0,027.5,020.8,20.3,0000.0,0001.76,0004.35,0001.46
2024-02-06 11:15:00,SystemResetWarning,0825.7,5.01,000.00,019.1,018.4,000.0,027.5,020.8,20.3,0000.0,0001.82,0005.30,0001.50
2024-02-06 11:16:00,SystemResetWarning,0825.8,5.00,000.00,019.1,018.4,000.0,027.5,020.8,20.0,0000.0,0001.86,0005.32,0001.54
2024-02-06 11:17:00,SystemResetWarning,0825.7,5.01,000.00,019.1,018.4,000.0,027.5,020.8,19.6,0000.0,0002.07,0005.61,0001.69
2024-02-06 11:18:00,SystemResetWarning,0825.7,4.99,000.00,019.1,018.4,000.0,027.5,020.8,19.4,0000.0,0002.32,0006.02,0001.90
2024-02-06 11:19:00,SystemResetWarning,0825.7,4.99,000.00,019.1,018.4,000.0,027.5,020.8,19.3,0000.0,0002.52,0006.48,0002.06
2024-02-06 11:20:00,SystemResetWarning,0825.6,5.00,000.00,019.1,018.4,000.0,027.5,020.8,19.4,0000.0,0002.61,0006.67,0002.13
2024-02-06 11:21:00,SystemResetWarning,0825.7,5.00,000.00,019.1,018.4,000.0,027.5,020.8,19.8,0000.0,0002.66,0006.78,0002.17
2024-02-06 11:22:00,SystemResetWarning,0825.7,5.01,000.00,019.1,018.5,000.0,027.5,020.8,20.1,0000.0,0002.72,0006.87,0002.20
2024-02-06 11:23:00,SystemResetWarning,0825.8,5.01,000.00,019.1,018.5,000.0,027.5,020.8,20.3,0000.0,0002.75,0006.51,0002.25
2024-02-06 11:24:00,SystemResetWarning,0825.8,4.99,000.00,019.1,018.5,000.0,027.5,020.8,20.2,0000.0,0002.77,0005.81,0002.31
2024-02-06 11:25:00,SystemResetWarning,0825.8,5.00,000.00,019.1,018.5,000.0,027.5,020.8,20.1,0000.0,0002.84,0005.83,0002.39
2024-02-06 11:26:00,SystemResetWarning,0825.8,5.00,000.00,019.1,018.5,000.0,027.5,020.8,20.0,0000.0,0002.96,0004.74,0002.53
2024-02-06 11:27:00,SystemResetWarning,0825.8,5.00,000.00,019.1,018.5,000.0,027.5,020.8,20.0,0000.0,0003.12,0005.05,0002.70
2024-02-06 11:28:00,SystemResetWarning,0825.9,5.01,000.00,019.1,018.4,000.0,027.5,020.8,20.0,0000.0,0003.16,0005.14,0002.78
2024-02-06 11:29:00,SystemResetWarning,0825.9,5.00,000.00,019.1,018.4,000.0,027.5,020.8,20.1,0000.0,0003.14,0005.36,0002.72
2024-02-06 11:30:00,SystemResetWarning,0825.9,5.00,000.00,019.1,018.4,000.0,027.5,020.8,20.1,0000.0,0003.12,0005.27,0002.68
2024-02-06 11:31:00,SystemResetWarning,0825.9,4.99,000.00,019.1,018.4,000.0,027.5,020.8,20.2,0000.0,0003.13,0005.22,0002.70
2024-02-06 11:32:00,SystemResetWarning,0825.8,4.99,000.00,019.1,018.5,000.0,027.5,020.8,20.5,0000.0,0003.19,0006.81,0002.78
2024-02-06 11:33:00,SystemResetWarning,0825.8,4.99,000.00,019.1,018.5,000.0,027.5,020.7,20.7,0000.0,0003.24,0006.82,0002.86
2024-02-06 11:34:00,SystemResetWarning,0825.8,5.00,000.00,019.1,018.5,000.0,027.5,020.8,20.7,0000.0,0003.27,0006.79,0002.93
2024-02-06 11:35:00,SystemResetWarning,0825.8,5.01,000.00,019.1,018.5,000.0,027.5,020.7,20.8,0000.0,0003.30,0006.79,0002.98
2024-02-06 11:36:00,SystemResetWarning,0825.7,5.00,000.00,019.1,018.5,000.0,027.5,020.7,20.8,0000.0,0003.36,0007.59,0003.07
2024-02-06 11:37:00,SystemResetWarning,0825.7,5.00,000.00,019.1,018.5,000.0,027.5,020.7,20.7,0000.0,0003.40,0007.82,0003.11
2024-02-06 11:38:00,SystemResetWarning,0825.7,5.01,000.00,019.1,018.5,000.0,027.4,020.7,20.7,0000.0,0003.41,0007.74,0003.13
2024-02-06 11:39:00,SystemResetWarning,0825.7,5.00,000.00,019.1,018.4,000.0,027.4,020.7,20.7,0000.0,0003.41,0007.75,0003.15
2024-02-06 11:40:00,SystemResetWarning,0825.7,5.00,000.00,019.1,018.4,000.0,027.4,020.7,20.6,0000.0,0003.43,0007.78,0003.19
2024-02-06 11:41:00,SystemResetWarning,0825.6,4.99,000.00,019.1,018.4,000.0,027.4,020.7,20.5,0000.0,0003.48,0007.77,0003.23
2024-02-06 11:42:00,SystemResetWarning,0825.6,5.00,000.00,019.0,018.4,000.0,027.4,020.7,20.5,0000.0,0003.52,0007.82,0003.27
2024-02-06 11:43:00,SystemResetWarning,0825.6,5.00,000.00,019.0,018.4,000.0,027.4,020.7,20.5,0000.0,0003.54,0007.10,0003.30
2024-02-06 11:44:00,SystemResetWarning,0825.7,5.01,000.00,019.0,018.4,000.0,027.4,020.7,20.5,0000.0,0003.53,0006.64,0003.31
2024-02-06 11:45:00,SystemResetWarning,0825.7,5.00,000.00,019.0,018.4,000.0,027.4,020.7,20.2,0000.0,0003.53,0006.56,0003.32
2024-02-06 11:46:00,SystemResetWarning,0825.7,5.00,000.00,019.0,018.4,000.0,027.4,020.7,19.7,0000.0,0003.53,0006.61,0003.32
2024-02-06 11:47:00,SystemResetWarning,0825.8,5.01,000.00,019.0,018.4,000.0,027.4,020.7,19.6,0000.0,0003.52,0006.20,0003.31
2024-02-06 11:48:00,SystemResetWarning,0825.7,5.00,000.00,019.0,018.3,000.0,027.4,020.7,20.1,0000.0,0003.46,0005.10,0003.27
2024-02-06 11:49:00,SystemResetWarning,0825.8,5.00,000.00,019.0,018.3,000.0,027.4,020.7,20.8,0000.0,0003.40,0005.04,0003.22
2024-02-06 11:50:00,SystemResetWarning,0825.7,5.00,000.00,019.0,018.3,000.0,027.4,020.7,20.9,0000.0,0003.33,0004.94,0003.14
2024-02-06 11:51:00,SystemResetWarning,0825.6,5.00,000.00,019.0,018.3,000.0,027.4,020.7,20.2,0000.0,0003.28,0004.71,0003.08
2024-02-06 11:52:00,SystemResetWarning,0825.6,4.99,000.00,019.0,018.3,000.0,027.4,020.7,20.3,0000.0,0003.26,0004.63,0003.04
2024-02-06 11:53:00,SystemResetWarning,0825.5,4.99,000.00,019.0,018.3,000.0,027.4,020.6,20.9,0000.0,0003.24,0004.69,0003.02
2024-02-06 11:54:00,SystemResetWarning,0825.5,5.00,000.00,019.0,018.3,000.0,027.4,020.6,21.2,0000.0,0003.21,0005.11,0002.99
2024-02-06 11:55:00,SystemResetWarning,0825.5,5.01,000.00,019.0,018.3,000.0,027.4,020.6,21.3,0000.0,0003.16,0004.99,0002.91
2024-02-06 11:56:00,SystemResetWarning,0825.5,5.00,000.00,019.0,018.3,000.0,027.4,020.6,21.4,0000.0,0003.18,0005.06,0002.90
2024-02-06 11:57:00,SystemResetWarning,0825.6,5.00,000.00,019.0,018.3,000.0,027.4,020.6,21.4,0000.0,0003.25,0005.46,0002.98
2024-02-06 11:58:00,SystemResetWarning,0825.5,5.00,000.00,018.9,018.3,000.0,027.4,020.6,21.3,0000.0,0003.32,0005.94,0003.06
2024-02-06 11:59:00,SystemResetWarning,0825.5,4.99,000.00,018.9,018.3,000.0,027.4,020.6,21.4,0000.0,0003.41,0006.25,0003.14
